Погода в Петухово

Россия / Курганская область     55°03′54″N   67°53′14″E
темп.,
°C
ветер,
м/с
пор.,
м/с
влажн.,
%
обл.,
%
осадки,
мм/ч
давл.,
гПа
погр.,
м
11 апреля, вс
вс1123:00−1юв35955 0.0 1041103
02:00−1ююв23935 0.0 104165
05:00−1ююв34945 0.0 104182
08:000ююв35885 0.0 1042175
11:00+4ю467058 0.0 1041308
14:00+7ю456316 0.0 1040404
17:00+6ю467872 0.0 1039275
20:00+2ю4689100 0.0 103884
12 апреля, пн
пн1223:000юз4785100 0.0 1038117
02:000юз498059 0.0 1037160
05:000юз4108052 0.0 1037158
08:00+3зюз41070100 0.0 1036237
11:00+7зюз5766100 0.0 1035360
14:00+9зсз4675100 0.0 1035462
17:00+8зсз3689100 0.1 1035321
20:00+6ссз3697100 0.0 1036178
13 апреля, вт
вт1323:00+5с2393100 0.0 103751
02:00+4ссв338888 0.0 103835
05:00+3ссв33860 0.0 104023
08:00+5всв23760 0.0 1040125
11:00+9ссв11550 0.0 1041596
14:00+11зсз22440 0.0 10401001
17:00+12зсз22440 0.0 10391025
20:00+9зсз11610 0.0 103910
14 апреля, ср
ср1423:00+7юз22680 0.0 103816
02:00+5юз34800 0.0 103756
05:00+4юз35875 0.0 103679
08:00+6зюз4776100 0.0 1036220
11:00+10зюз5759100 0.0 1034502
14:00+13зюз6746100 0.0 1032760
17:00+14з57485 0.0 1030824
20:00+10зюз476747 0.0 102993
15 апреля, чт
чт1523:00+8зюз367352 0.0 102879
02:00+7зюз46775 0.0 102783
05:00+6зюз35805 0.0 102668
08:00+9зюз47735 0.0 1025196
11:00+14з56605 0.0 1024494
14:00+17з56566 0.0 1022996
17:00+18з56545 0.0 10201314
20:00+13зюз34735 0.0 102057